G7DPE Weather Reports


time (UTC)temp
C
wind
direction
speed
KPH
gust
KPH
rain 1hr
cm
rain 24hr
cm
rain mn
cm
humidity
%
barometer
mb
20260507101803 14 187 1.6 6.4 0.00 0.00 0.00 56 1019.4
20260507100903 13 157 1.6 3.2 0.00 0.00 0.00 57 1019.4
20260507100003 12 234 0.0 3.2 0.00 0.00 0.00 66 1019.6
20260507095617 12 198 0.0 1.6 0.00 0.00 0.00 65 1019.5
20260507094503 12 178 1.6 4.8 0.00 0.00 0.00 66 1019.6
20260507093603 12 198 3.2 6.4 0.00 0.00 0.00 60 1019.5
20260507092919 13 138 1.6 6.4 0.00 0.00 0.00 63 1019.5
20260507092017 13 158 1.6 6.4 0.00 0.00 0.00 58 1019.6
20260507090903 11 293 1.6 3.2 0.00 0.00 0.00 67 1019.6
20260507090003 11 190 1.6 4.8 0.00 0.00 0.00 69 1019.6
20260507085403 11 241 1.6 4.8 0.00 0.00 0.00 72 1019.5
20260507084503 11 246 1.6 3.2 0.00 0.00 0.00 72 1019.7
20260507083603 11 220 0.0 3.2 0.00 0.00 0.00 71 1019.7
20260507082703 12 136 0.0 4.8 0.00 0.00 0.00 69 1019.4
20260507081803 11 254 1.6 3.2 0.00 0.00 0.00 74 1019.4
20260507080903 11 156 1.6 6.4 0.00 0.00 0.00 75 1019.4
20260507080003 11 169 0.0 6.4 0.00 0.00 0.00 78 1019.3
20260507075403 10 151 1.6 3.2 0.00 0.00 0.00 81 1019.4
20260507074504 9 133 1.6 4.8 0.00 0.00 0.00 83 1019.4
20260507073603 10 147 0.0 3.2 0.00 0.00 0.00 85 1019.4
20260507072703 9 146 1.6 4.8 0.00 0.00 0.00 88 1019.2
20260507072018 8 165 1.6 3.2 0.00 0.00 0.00 89 1019.3
20260507070903 7 156 1.6 1.6 0.00 0.00 0.00 94 1019.5
20260507070004 7 157 1.6 3.2 0.00 0.00 0.00 96 1019.4
20260507065618 7 165 1.6 3.2 0.00 0.00 0.00 96 1019.2
20260507064504 6 177 0.0 1.6 0.00 0.00 0.00 97 1019.3
20260507063603 6 0 0.0 0.0 0.00 0.00 0.00 97 1019.3
20260507062703 5 0 0.0 0.0 0.00 0.00 0.00 97 1019.2
20260507061804 5 184 0.0 1.6 0.00 0.00 0.00 97 1019.3
20260507060903 5 0 0.0 0.0 0.00 0.00 0.00 97 1019.4
20260507060003 5 0 0.0 0.0 0.00 0.00 0.00 97 1019.3
20260507055404 5 0 0.0 0.0 0.00 0.00 0.00 97 1019.1
20260507054503 4 0 0.0 0.0 0.00 0.00 0.00 97 1019.2
20260507053603 4 0 0.0 0.0 0.00 0.00 0.00 97 1019.1
20260507052703 3 0 0.0 0.0 0.00 0.00 0.00 96 1019.1
20260507051803 3 0 0.0 0.0 0.00 0.00 0.00 96 1019.1
20260507051116 3 0 0.0 0.0 0.00 0.00 0.00 96 1019.1
20260507050218 3 270 0.0 1.6 0.00 0.00 0.00 96 1019.1
20260507045403 3 270 0.0 1.6 0.00 0.00 0.00 96 1018.9
20260507044503 2 0 0.0 0.0 0.00 0.00 0.00 96 1018.8
20260507043604 2 0 0.0 0.0 0.00 0.00 0.00 96 1019.0
20260507042705 2 0 0.0 0.0 0.00 0.00 0.00 96 1018.8
20260507042017 2 0 0.0 0.0 0.00 0.00 0.00 96 1018.8
20260507040903 2 0 0.0 0.0 0.00 0.00 0.00 96 1018.8
20260507040003 2 0 0.0 0.0 0.00 0.00 0.00 95 1018.6
20260507035403 3 0 0.0 0.0 0.00 0.00 0.00 95 1018.6
20260507034503 3 0 0.0 0.0 0.00 0.00 0.00 95 1018.8
20260507033603 3 0 0.0 0.0 0.00 0.00 0.00 95 1018.8
20260507032704 3 0 0.0 0.0 0.00 0.00 0.00 95 1018.7
20260507031803 3 0 0.0 0.0 0.00 0.00 0.00 95 1018.7
20260507031118 3 0 0.0 0.0 0.00 0.00 0.00 95 1018.7
20260507030003 4 0 0.0 0.0 0.00 0.00 0.00 95 1018.6
20260507025403 4 0 0.0 0.0 0.00 0.00 0.00 95 1018.7
20260507024718 4 0 0.0 0.0 0.00 0.00 0.00 95 1018.6
20260507023603 5 0 0.0 0.0 0.00 0.00 0.00 95 1018.7
20260507022703 5 0 0.0 0.0 0.00 0.00 0.00 95 1018.7
20260507022018 5 260 0.0 1.6 0.00 0.00 0.00 95 1018.8
20260507020904 5 0 0.0 0.0 0.00 0.00 0.00 95 1018.6
20260507020216 4 0 0.0 0.0 0.00 0.00 0.00 95 1018.8
20260507015616 4 0 0.0 0.0 0.00 0.00 0.00 95 1018.5
20260507014503 3 0 0.0 0.0 0.00 0.00 0.00 95 1018.5
20260507013603 3 0 0.0 0.0 0.00 0.00 0.00 95 1018.6
20260507012703 3 0 0.0 0.0 0.00 0.00 0.00 95 1018.7
20260507011803 3 0 0.0 0.0 0.00 0.00 0.00 95 1018.6
20260507010003 3 0 0.0 0.0 0.00 0.00 0.00 94 1018.5
20260507005403 3 0 0.0 0.0 0.00 0.00 0.00 94 1018.6
20260507004503 3 0 0.0 0.0 0.00 0.00 0.00 94 1018.7
20260507003603 3 0 0.0 0.0 0.00 0.00 0.00 94 1018.4
20260507002704 3 0 0.0 0.0 0.00 0.00 0.00 94 1018.6
20260507001803 4 248 0.0 1.6 0.00 0.00 0.00 94 1018.6
20260507000904 4 0 0.0 0.0 0.00 0.00 0.00 93 1018.7
20260507000003 4 0 0.0 0.0 0.00 0.00 0.00 93 1018.8
20260506235403 5 231 0.0 1.6 0.00 0.00 0.00 93 1018.5
20260506234503 4 0 0.0 0.0 0.00 0.00 0.00 93 1018.4
20260506233604 5 0 0.0 0.0 0.00 0.00 0.00 92 1018.4
20260506232703 5 0 0.0 0.0 0.00 0.00 0.00 92 1018.6
20260506231803 5 0 0.0 0.0 0.00 0.00 0.00 92 1018.6
20260506230903 5 0 0.0 0.0 0.00 0.00 0.00 91 1018.4
20260506230003 5 287 0.0 1.6 0.00 0.00 0.00 91 1018.5
20260506225403 5 285 0.0 1.6 0.00 0.00 0.00 91 1018.6
20260506224503 5 297 0.0 3.2 0.00 0.00 0.00 91 1018.3
20260506223603 5 342 0.0 1.6 0.00 0.00 0.00 90 1018.5
20260506222703 6 19 0.0 1.6 0.00 0.00 0.00 90 1018.3
20260506222016 6 336 0.0 1.6 0.00 0.00 0.00 90 1018.4
20260506220903 6 275 0.0 1.6 0.00 0.00 0.00 89 1018.3
20260506220003 6 292 0.0 1.6 0.00 0.00 0.00 89 1018.2
20260506215403 6 118 0.0 1.6 0.00 0.00 0.00 88 1018.0
20260506214505 6 326 0.0 1.6 0.00 0.00 0.00 87 1018.1
20260506213603 7 331 0.0 3.2 0.00 0.00 0.00 87 1018.2
20260506212703 7 16 1.6 3.2 0.00 0.00 0.00 86 1018.2
20260506211803 7 9 1.6 3.2 0.00 0.00 0.00 85 1018.4